,,Stat6,,Stat2,,Stat8,,Stat9,,Stat10,,Wind1,,Wind1,
time,status,PA1M_AVG,status,PR1M_SUM,status,RH1M_AVG,status,SR1M_AVG,status,TA1M_AVG,status,W1dAve1m,status,W1sAve1m,
2003-11-04, 00:00:01,VALID,919.016,VALID,0,VALID,100,VALID,0,VALID,19.7879,VALID,234,VALID,0.155342,
2003-11-04, 00:01:01,VALID,919.007,VALID,0,VALID,100,VALID,-0.0169808,VALID,19.7976,VALID,233,VALID,0.154102,
2003-11-04, 00:02:00,VALID,919.006,VALID,0,VALID,100,VALID,0,VALID,19.8143,VALID,232,VALID,0.0239955,
2003-11-04, 00:03:01,VALID,919.005,VALID,0,VALID,100,VALID,-0.0169808,VALID,19.8269,VALID,232,VALID,0.0188953,
2003-11-04, 00:04:00,VALID,919.016,VALID,0,VALID,100,VALID,0,VALID,19.8336,VALID,232,VALID,0,
2003-11-04, 00:05:00,VALID,919.036,VALID,0,VALID,100,VALID,0,VALID,19.8595,VALID,232,VALID,0,
2003-11-04, 00:06:01,VALID,919.043,VALID,0,VALID,100,VALID,0,VALID,19.859,VALID,232,VALID,0.00104167,
2003-11-04, 00:07:00,VALID,919.077,VALID,0,VALID,100,VALID,0.0169808,VALID,19.8555,VALID,232,VALID,0,
2003-11-04, 00:08:01,VALID,919.1,VALID,0,VALID,100,VALID,0,VALID,19.8528,VALID,232,VALID,0.108594,
2003-11-04, 00:09:01,VALID,919.102,VALID,0,VALID,100,VALID,0.0169808,VALID,19.8463,VALID,232,VALID,0,
2003-11-04, 00:10:01,VALID,919.101,VALID,0,VALID,100,VALID,0.0169808,VALID,19.8329,VALID,232,VALID,0,
2003-11-04, 00:11:00,VALID,919.082,VALID,0,VALID,100,VALID,0,VALID,19.8361,VALID,230,VALID,0,
2003-11-04, 00:12:01,VALID,919.072,VALID,0,VALID,100,VALID,0.0169808,VALID,19.8461,VALID,227,VALID,0.131424,
2003-11-04, 00:13:01,VALID,919.064,VALID,0,VALID,100,VALID,0.0169808,VALID,19.8396,VALID,209,VALID,0.471637,
2003-11-04, 00:14:00,VALID,919.056,VALID,0,VALID,100,VALID,0.0169808,VALID,19.8138,VALID,210,VALID,0.23819,
2003-11-04, 00:15:01,VALID,919.05,VALID,0,VALID,100,VALID,0,VALID,19.817,VALID,210,VALID,0.000186012,
2003-11-04, 00:16:00,VALID,919.044,VALID,0,VALID,100,VALID,0,VALID,19.7944,VALID,227,VALID,0.345465,
2003-11-04, 00:17:01,VALID,919.016,VALID,0,VALID,100,VALID,0.0169808,VALID,19.7817,VALID,228,VALID,0.215701,
2003-11-04, 00:18:01,VALID,918.982,VALID,0,VALID,100,VALID,0.0169808,VALID,19.7882,VALID,238,VALID,0.273624,
2003-11-04, 00:19:01,VALID,918.946,VALID,0,VALID,100,VALID,0,VALID,19.7589,VALID,236,VALID,0.280382,
2003-11-04, 00:20:01,VALID,918.891,VALID,0,VALID,100,VALID,0.0169808,VALID,19.7425,VALID,236,VALID,0.55545,
2003-11-04, 00:21:00,VALID,918.849,VALID,0,VALID,100,VALID,0,VALID,19.7298,VALID,238,VALID,0.745427,
2003-11-04, 00:22:01,VALID,918.795,VALID,0,VALID,100,VALID,0,VALID,19.7074,VALID,238,VALID,0.661204,
2003-11-04, 00:23:01,VALID,918.749,VALID,0,VALID,100,VALID,0.0169808,VALID,19.7141,VALID,242,VALID,0.640224,
2003-11-04, 00:24:01,VALID,918.728,VALID,0,VALID,100,VALID,0.0169808,VALID,19.7136,VALID,247,VALID,0.126635,
2003-11-04, 00:25:00,VALID,918.716,VALID,0,VALID,100,VALID,0.0169808,VALID,19.7338,VALID,246,VALID,0.000976563,
2003-11-04, 00:26:01,VALID,918.695,VALID,0,VALID,100,VALID,0,VALID,19.7467,VALID,169,VALID,0.298828,
2003-11-04, 00:27:01,VALID,918.676,VALID,0,VALID,100,VALID,0,VALID,19.7497,VALID,146,VALID,0.177379,
2003-11-04, 00:28:01,VALID,918.634,VALID,0,VALID,100,VALID,0.0169808,VALID,19.7559,VALID,140,VALID,0.0365767,
2003-11-04, 00:29:01,VALID,918.591,VALID,0,VALID,100,VALID,0,VALID,19.7656,VALID,138,VALID,0,
2003-11-04, 00:30:01,VALID,918.545,VALID,0,VALID,100,VALID,0,VALID,19.7785,VALID,150,VALID,0.272485,
2003-11-04, 00:31:01,VALID,918.482,VALID,0,VALID,100,VALID,0,VALID,19.7723,VALID,185,VALID,0.612749,
2003-11-04, 00:32:01,VALID,918.438,VALID,0,VALID,100,VALID,0.0169808,VALID,19.7489,VALID,203,VALID,0.727134,
2003-11-04, 00:33:00,VALID,918.405,VALID,0,VALID,100,VALID,0,VALID,19.7462,VALID,209,VALID,0.488021,
2003-11-04, 00:34:01,VALID,918.382,VALID,0,VALID,100,VALID,0,VALID,19.7425,VALID,199,VALID,0.29043,
2003-11-04, 00:35:01,VALID,918.374,VALID,0,VALID,100,VALID,0,VALID,19.7591,VALID,176,VALID,0.0814732,
2003-11-04, 00:36:01,VALID,918.377,VALID,0,VALID,100,VALID,0,VALID,19.7584,VALID,176,VALID,0.0823171,
2003-11-04, 00:37:01,VALID,918.374,VALID,0,VALID,100,VALID,0.0339617,VALID,19.736,VALID,154,VALID,0.26835,
2003-11-04, 00:38:01,VALID,918.372,VALID,0,VALID,100,VALID,0.0169808,VALID,19.7263,VALID,125,VALID,0.209535,
2003-11-04, 00:39:01,VALID,918.352,VALID,0,VALID,100,VALID,0.0509425,VALID,19.743,VALID,120,VALID,0.316311,
2003-11-04, 00:40:01,VALID,918.341,VALID,0,VALID,100,VALID,0.0509425,VALID,19.7268,VALID,120,VALID,0.286204,
2003-11-04, 00:41:01,VALID,918.315,VALID,0,VALID,100,VALID,0.0169808,VALID,19.694,VALID,120,VALID,0.178622,
2003-11-04, 00:42:01,VALID,918.297,VALID,0,VALID,100,VALID,0,VALID,19.6617,VALID,120,VALID,0.212536,
2003-11-04, 00:43:01,VALID,918.283,VALID,0,VALID,100,VALID,0.0169808,VALID,19.6881,VALID,88,VALID,0.344477,
2003-11-04, 00:44:01,VALID,918.259,VALID,0,VALID,100,VALID,0,VALID,19.7107,VALID,33,VALID,0.506722,
2003-11-04, 00:45:01,VALID,918.238,VALID,0,VALID,100,VALID,0.0169808,VALID,19.7169,VALID,44,VALID,0.661754,
2003-11-04, 00:46:01,VALID,918.234,VALID,0,VALID,100,VALID,0.0169808,VALID,19.7171,VALID,71,VALID,0.531613,
2003-11-04, 00:47:01,VALID,918.228,VALID,0,VALID,100,VALID,0.0169808,VALID,19.6749,VALID,113,VALID,1.00305,
2003-11-04, 00:48:01,VALID,918.241,VALID,0,VALID,100,VALID,0.0509425,VALID,19.6329,VALID,122,VALID,1.2698,
2003-11-04, 00:49:01,VALID,918.227,VALID,0,VALID,100,VALID,0,VALID,19.614,VALID,128,VALID,1.23165,
2003-11-04, 00:50:01,VALID,918.226,VALID,0,VALID,100,VALID,-0.0679233,VALID,19.6053,VALID,125,VALID,1.31445,
2003-11-04, 00:51:01,VALID,918.215,VALID,0,VALID,100,VALID,-0.0339617,VALID,19.6016,VALID,112,VALID,0.655506,
2003-11-04, 00:52:01,VALID,918.2,VALID,0,VALID,100,VALID,-0.0509425,VALID,19.6115,VALID,110,VALID,0.554501,
2003-11-04, 00:53:01,VALID,918.176,VALID,0,VALID,100,VALID,-0.101885,VALID,19.6182,VALID,118,VALID,0.58316,
2003-11-04, 00:54:01,VALID,918.149,VALID,0,VALID,100,VALID,-0.0509425,VALID,19.6346,VALID,115,VALID,0.894077,
2003-11-04, 00:55:01,VALID,918.131,VALID,0,VALID,100,VALID,-0.0679233,VALID,19.6446,VALID,135,VALID,0.601749,
2003-11-04, 00:56:01,VALID,918.113,VALID,0,VALID,100,VALID,-0.101885,VALID,19.6704,VALID,125,VALID,0.857777,
2003-11-04, 00:57:01,VALID,918.097,VALID,0,VALID,100,VALID,-0.0849042,VALID,19.6801,VALID,139,VALID,1.129,
2003-11-04, 00:58:01,VALID,918.064,VALID,0,VALID,100,VALID,-0.0849042,VALID,19.6769,VALID,134,VALID,1.38772,
2003-11-04, 00:59:01,VALID,918.044,VALID,0,VALID,100,VALID,-0.0849042,VALID,19.6637,VALID,138,VALID,0.718359,
2003-11-04, 01:00:00,VALID,918.043,VALID,0,VALID,100,VALID,-0.101885,VALID,19.6774,VALID,128,VALID,0.700893,
2003-11-04, 01:01:00,VALID,918.051,VALID,0,VALID,100,VALID,-0.101885,VALID,19.6868,VALID,142,VALID,1.01617,
2003-11-04, 01:02:00,VALID,918.047,VALID,0,VALID,100,VALID,-0.0849042,VALID,19.6739,VALID,107,VALID,0.980369,
2003-11-04, 01:03:00,VALID,918.033,VALID,0,VALID,100,VALID,-0.101885,VALID,19.6543,VALID,98,VALID,0.723633,
2003-11-04, 01:04:00,VALID,918.011,VALID,0,VALID,100,VALID,-0.101885,VALID,19.6505,VALID,115,VALID,1.43537,
2003-11-04, 01:05:00,VALID,917.975,VALID,0,VALID,100,VALID,0,VALID,19.6428,VALID,116,VALID,1.13379,
2003-11-04, 01:06:00,VALID,917.951,VALID,0,VALID,100,VALID,0.0679233,VALID,19.6394,VALID,119,VALID,0.940476,
2003-11-04, 01:07:00,VALID,917.926,VALID,0.2,VALID,100,VALID,0.0339617,VALID,19.6461,VALID,111,VALID,0.772372,
2003-11-04, 01:08:00,VALID,917.918,VALID,0,VALID,100,VALID,0,VALID,19.6493,VALID,102,VALID,0.855741,
2003-11-04, 01:09:00,VALID,917.925,VALID,0,VALID,100,VALID,0.0339617,VALID,19.6461,VALID,104,VALID,0.929155,
2003-11-04, 01:10:00,VALID,917.93,VALID,0,VALID,100,VALID,0,VALID,19.6461,VALID,114,VALID,0.834794,
2003-11-04, 01:11:00,VALID,917.911,VALID,0,VALID,100,VALID,0.0169808,VALID,19.6493,VALID,111,VALID,0.742014,
2003-11-04, 01:12:00,VALID,917.908,VALID,0,VALID,100,VALID,0.0169808,VALID,19.6458,VALID,110,VALID,0.855903,
2003-11-04, 01:13:00,VALID,917.888,VALID,0,VALID,100,VALID,0.0339617,VALID,19.6627,VALID,122,VALID,0.563616,
2003-11-04, 01:14:00,VALID,917.902,VALID,0,VALID,100,VALID,0,VALID,19.6687,VALID,110,VALID,0.955305,
2003-11-04, 01:15:00,VALID,917.905,VALID,0,VALID,100,VALID,0,VALID,19.6617,VALID,69,VALID,0.593192,
2003-11-04, 01:16:00,VALID,917.898,VALID,0,VALID,100,VALID,0,VALID,19.6684,VALID,129,VALID,0.893415,
2003-11-04, 01:17:00,VALID,917.881,VALID,0.2,VALID,100,VALID,0.0339617,VALID,19.6692,VALID,129,VALID,0.664063,
2003-11-04, 01:18:00,VALID,917.883,VALID,0,VALID,100,VALID,0.0169808,VALID,19.6558,VALID,113,VALID,1.15885,
2003-11-04, 01:19:00,VALID,917.855,VALID,0,VALID,100,VALID,0.0509425,VALID,19.6396,VALID,118,VALID,1.21704,
2003-11-04, 01:20:00,VALID,917.843,VALID,0,VALID,100,VALID,-0.0509425,VALID,19.6346,VALID,129,VALID,1.34766,
2003-11-04, 01:21:00,VALID,917.817,VALID,0,VALID,100,VALID,-0.0679233,VALID,19.6019,VALID,146,VALID,1.47184,
2003-11-04, 01:22:00,VALID,917.809,VALID,0,VALID,100,VALID,0,VALID,19.5825,VALID,156,VALID,0.846912,
2003-11-04, 01:23:00,VALID,917.807,VALID,0,VALID,100,VALID,-0.0509425,VALID,19.5663,VALID,157,VALID,1.04918,
2003-11-04, 01:24:00,VALID,917.789,VALID,0.2,VALID,100,VALID,-0.0339617,VALID,19.5504,VALID,136,VALID,1.20446,
2003-11-04, 01:25:00,VALID,917.768,VALID,0,VALID,100,VALID,-0.0339617,VALID,19.5467,VALID,142,VALID,0.789993,
2003-11-04, 01:26:00,VALID,917.759,VALID,0,VALID,100,VALID,-0.0169808,VALID,19.5537,VALID,156,VALID,0.921131,
2003-11-04, 01:27:00,VALID,917.746,VALID,0,VALID,100,VALID,-0.0169808,VALID,19.5407,VALID,165,VALID,0.855741,
2003-11-04, 01:28:00,VALID,917.733,VALID,0,VALID,100,VALID,0,VALID,19.5308,VALID,147,VALID,0.813194,
2003-11-04, 01:29:00,VALID,917.724,VALID,0,VALID,100,VALID,0,VALID,19.5211,VALID,141,VALID,0.970703,
2003-11-04, 01:30:00,VALID,917.714,VALID,0,VALID,100,VALID,-0.0169808,VALID,19.5181,VALID,140,VALID,0.99638,
2003-11-04, 01:31:00,VALID,917.71,VALID,0,VALID,100,VALID,-0.0169808,VALID,19.5079,VALID,131,VALID,1.20195,
2003-11-04, 01:32:00,VALID,917.702,VALID,0,VALID,100,VALID,-0.0339617,VALID,19.5017,VALID,150,VALID,1.07672,
2003-11-04, 01:33:00,VALID,917.702,VALID,0,VALID,100,VALID,-0.0339617,VALID,19.4985,VALID,139,VALID,1.03574,
2003-11-04, 01:34:00,VALID,917.693,VALID,0,VALID,100,VALID,-0.0339617,VALID,19.4923,VALID,141,VALID,1.31704,
2003-11-04, 01:35:00,VALID,917.699,VALID,0,VALID,100,VALID,-0.0509425,VALID,19.4826,VALID,140,VALID,1.12198,
2003-11-04, 01:36:00,VALID,917.693,VALID,0,VALID,100,VALID,-0.0509425,VALID,19.4826,VALID,134,VALID,1.33485,
2003-11-04, 01:37:00,VALID,917.687,VALID,0,VALID,100,VALID,0,VALID,19.4665,VALID,137,VALID,1.44122,
2003-11-04, 01:38:00,VALID,917.677,VALID,0,VALID,100,VALID,-0.0509425,VALID,19.4598,VALID,150,VALID,1.10004,
2003-11-04, 01:39:00,VALID,917.661,VALID,0,VALID,100,VALID,-0.0509425,VALID,19.4545,VALID,153,VALID,1.00418,
2003-11-04, 01:40:00,VALID,917.639,VALID,0,VALID,100,VALID,-0.0339617,VALID,19.4344,VALID,152,VALID,1.04147,
2003-11-04, 01:41:00,VALID,917.637,VALID,0,VALID,100,VALID,-0.0849042,VALID,19.4344,VALID,149,VALID,0.981898,
2003-11-04, 01:42:00,VALID,917.623,VALID,0,VALID,100,VALID,-0.0849042,VALID,19.425,VALID,131,VALID,0.891555,
2003-11-04, 01:43:00,VALID,917.622,VALID,0,VALID,100,VALID,-0.0509425,VALID,19.4252,VALID,129,VALID,1.17264,
2003-11-04, 01:44:00,VALID,917.611,VALID,0,VALID,100,VALID,-0.0509425,VALID,19.4088,VALID,114,VALID,1.09434,
2003-11-04, 01:45:00,VALID,917.602,VALID,0,VALID,100,VALID,-0.0679233,VALID,19.3855,VALID,94,VALID,0.727289,
2003-11-04, 01:46:00,VALID,917.581,VALID,0,VALID,100,VALID,-0.0849042,VALID,19.3887,VALID,105,VALID,0.644531,
2003-11-04, 01:47:00,VALID,917.556,VALID,0,VALID,100,VALID,-0.0509425,VALID,19.3961,VALID,124,VALID,0.859375,
2003-11-04, 01:48:00,VALID,917.526,VALID,0,VALID,100,VALID,-0.0679233,VALID,19.3865,VALID,132,VALID,0.597479,
2003-11-04, 01:49:00,VALID,917.521,VALID,0,VALID,100,VALID,-0.0849042,VALID,19.3728,VALID,141,VALID,0.840625,
2003-11-04, 01:50:00,VALID,917.501,VALID,0,VALID,100,VALID,0.0339617,VALID,19.3885,VALID,137,VALID,0.988782,
2003-11-04, 01:51:00,VALID,917.485,VALID,0,VALID,100,VALID,0.0339617,VALID,19.3785,VALID,136,VALID,1.06484,
2003-11-04, 01:52:00,VALID,917.474,VALID,0,VALID,100,VALID,0.0169808,VALID,19.3847,VALID,138,VALID,1.01491,
2003-11-04, 01:53:00,VALID,917.451,VALID,0,VALID,100,VALID,0.0339617,VALID,19.3944,VALID,134,VALID,1.20964,
2003-11-04, 01:54:00,VALID,917.423,VALID,0,VALID,100,VALID,0.0339617,VALID,19.3877,VALID,133,VALID,0.548363,
2003-11-04, 01:55:00,VALID,917.402,VALID,0,VALID,100,VALID,0.0169808,VALID,19.3977,VALID,120,VALID,0.298328,
2003-11-04, 01:56:00,VALID,917.387,VALID,0,VALID,100,VALID,0.0339617,VALID,19.4011,VALID,126,VALID,0.475291,
2003-11-04, 01:57:00,VALID,917.389,VALID,0,VALID,100,VALID,0.0679233,VALID,19.4006,VALID,141,VALID,0.590021,
2003-11-04, 01:58:00,VALID,917.389,VALID,0,VALID,100,VALID,0.0169808,VALID,19.4004,VALID,120,VALID,0.548921,
2003-11-04, 01:59:00,VALID,917.392,VALID,0,VALID,100,VALID,0.0339617,VALID,19.391,VALID,115,VALID,1.06432,
2003-11-04, 02:00:00,VALID,917.386,VALID,0,VALID,100,VALID,0.0509425,VALID,19.3944,VALID,109,VALID,0.905134,
2003-11-04, 02:01:00,VALID,917.361,VALID,0,VALID,100,VALID,0.0509425,VALID,19.3974,VALID,120,VALID,0.511364,
2003-11-04, 02:02:00,VALID,917.322,VALID,0,VALID,100,VALID,0.0509425,VALID,19.3972,VALID,154,VALID,1.11737,
2003-11-04, 02:03:00,VALID,917.322,VALID,0,VALID,100,VALID,0.0339617,VALID,19.4168,VALID,166,VALID,1.38335,
2003-11-04, 02:04:00,VALID,917.315,VALID,0.2,VALID,100,VALID,0,VALID,19.4329,VALID,148,VALID,1.07645,
2003-11-04, 02:05:00,VALID,917.305,VALID,0,VALID,100,VALID,0.0339617,VALID,19.4369,VALID,141,VALID,1.22852,
2003-11-04, 02:06:00,VALID,917.298,VALID,0,VALID,100,VALID,0,VALID,19.4267,VALID,133,VALID,0.90696,
2003-11-04, 02:07:00,VALID,917.274,VALID,0,VALID,100,VALID,0.0169808,VALID,19.4272,VALID,155,VALID,0.859557,
2003-11-04, 02:08:00,VALID,917.253,VALID,0,VALID,100,VALID,0.0169808,VALID,19.4103,VALID,155,VALID,1.07374,
2003-11-04, 02:09:00,VALID,917.21,VALID,0,VALID,100,VALID,0.0169808,VALID,19.4044,VALID,149,VALID,0.884146,
2003-11-04, 02:10:00,VALID,917.172,VALID,0,VALID,100,VALID,0,VALID,19.4046,VALID,158,VALID,0.657703,
2003-11-04, 02:11:00,VALID,917.159,VALID,0,VALID,100,VALID,0.0339617,VALID,19.388,VALID,148,VALID,1.09505,
2003-11-04, 02:12:00,VALID,917.14,VALID,0,VALID,100,VALID,0.0679233,VALID,19.3917,VALID,162,VALID,0.729226,
2003-11-04, 02:13:00,VALID,917.124,VALID,0,VALID,100,VALID,0.0339617,VALID,19.3718,VALID,164,VALID,0.648801,
2003-11-04, 02:14:00,VALID,917.105,VALID,0,VALID,100,VALID,0.0849042,VALID,19.3783,VALID,149,VALID,0.430804,
2003-11-04, 02:15:00,VALID,917.084,VALID,0,VALID,100,VALID,0.0509425,VALID,19.3584,VALID,153,VALID,1.0419,
2003-11-04, 02:16:00,VALID,917.047,VALID,0,VALID,100,VALID,0,VALID,19.3592,VALID,176,VALID,0.598958,
2003-11-04, 02:17:00,VALID,917.021,VALID,0,VALID,100,VALID,0.0169808,VALID,19.3529,VALID,163,VALID,0.871189,
2003-11-04, 02:18:00,VALID,916.984,VALID,0,VALID,100,VALID,0.0169808,VALID,19.3562,VALID,177,VALID,0.920759,
2003-11-04, 02:19:00,VALID,916.956,VALID,0,VALID,100,VALID,0.0169808,VALID,19.3529,VALID,143,VALID,0.960405,
2003-11-04, 02:20:00,VALID,916.948,VALID,0,VALID,100,VALID,0,VALID,19.3534,VALID,142,VALID,1.37438,
2003-11-04, 02:21:00,VALID,916.938,VALID,0,VALID,100,VALID,0.0339617,VALID,19.34,VALID,138,VALID,1.17359,
2003-11-04, 02:22:00,VALID,916.949,VALID,0,VALID,100,VALID,0.0339617,VALID,19.3269,VALID,128,VALID,1.35465,
2003-11-04, 02:23:00,VALID,916.966,VALID,0,VALID,100,VALID,0,VALID,19.3204,VALID,129,VALID,1.36192,
2003-11-04, 02:24:00,VALID,916.981,VALID,0,VALID,100,VALID,0.0169808,VALID,19.3341,VALID,128,VALID,1.4308,
2003-11-04, 02:25:00,VALID,916.983,VALID,0,VALID,100,VALID,0,VALID,19.3241,VALID,120,VALID,1.33067,
2003-11-04, 02:26:00,VALID,916.99,VALID,0,VALID,100,VALID,0,VALID,19.3107,VALID,107,VALID,1.47656,
2003-11-04, 02:27:00,VALID,917.003,VALID,0,VALID,100,VALID,0.0169808,VALID,19.3174,VALID,119,VALID,1.54173,
2003-11-04, 02:28:00,VALID,917.003,VALID,0,VALID,100,VALID,0,VALID,19.3077,VALID,131,VALID,1.19453,
2003-11-04, 02:29:00,VALID,916.985,VALID,0,VALID,100,VALID,0.0339617,VALID,19.3075,VALID,136,VALID,1.22301,
2003-11-04, 02:30:00,VALID,916.97,VALID,0,VALID,100,VALID,0.0169808,VALID,19.3144,VALID,135,VALID,1.02707,
2003-11-04, 02:31:00,VALID,916.958,VALID,0,VALID,100,VALID,0.0339617,VALID,19.3112,VALID,133,VALID,0.956641,
2003-11-04, 02:32:00,VALID,916.93,VALID,0,VALID,100,VALID,0,VALID,19.308,VALID,141,VALID,1.6677,
2003-11-04, 02:33:00,VALID,916.911,VALID,0,VALID,100,VALID,0,VALID,19.3207,VALID,140,VALID,1.89489,
2003-11-04, 02:34:00,VALID,916.9,VALID,0,VALID,100,VALID,0,VALID,19.3308,VALID,138,VALID,1.41183,
2003-11-04, 02:35:00,VALID,916.893,VALID,0,VALID,100,VALID,0,VALID,19.3378,VALID,127,VALID,1.63218,
2003-11-04, 02:36:00,VALID,916.883,VALID,0,VALID,100,VALID,0,VALID,19.3144,VALID,124,VALID,1.22414,
2003-11-04, 02:37:00,VALID,916.881,VALID,0,VALID,100,VALID,-0.0169808,VALID,19.3112,VALID,131,VALID,1.16061,
2003-11-04, 02:38:00,VALID,916.881,VALID,0,VALID,100,VALID,0,VALID,19.3047,VALID,136,VALID,1.68613,
2003-11-04, 02:39:00,VALID,916.895,VALID,0,VALID,100,VALID,0,VALID,19.2983,VALID,135,VALID,1.66443,
2003-11-04, 02:40:00,VALID,916.889,VALID,0,VALID,100,VALID,0,VALID,19.2918,VALID,125,VALID,1.29688,
2003-11-04, 02:41:00,VALID,916.892,VALID,0,VALID,100,VALID,0,VALID,19.2655,VALID,131,VALID,1.16257,
2003-11-04, 02:42:00,VALID,916.885,VALID,0,VALID,100,VALID,0,VALID,19.2528,VALID,129,VALID,1.3468,
2003-11-04, 02:43:00,VALID,916.878,VALID,0,VALID,100,VALID,0.0339617,VALID,19.2399,VALID,122,VALID,1.50484,
2003-11-04, 02:44:00,VALID,916.875,VALID,0,VALID,100,VALID,0.0339617,VALID,19.2238,VALID,117,VALID,1.78555,
2003-11-04, 02:45:00,VALID,916.878,VALID,0,VALID,100,VALID,0.0169808,VALID,19.2143,VALID,120,VALID,2.20573,
2003-11-04, 02:46:00,VALID,916.874,VALID,0,VALID,100,VALID,0,VALID,19.2238,VALID,127,VALID,1.64571,
2003-11-04, 02:47:00,VALID,916.902,VALID,0,VALID,100,VALID,0.0169808,VALID,19.2464,VALID,125,VALID,1.41715,
2003-11-04, 02:48:00,VALID,916.897,VALID,0,VALID,100,VALID,0.0509425,VALID,19.2625,VALID,139,VALID,1.65816,
2003-11-04, 02:49:00,VALID,916.897,VALID,0,VALID,100,VALID,0.0339617,VALID,19.2553,VALID,148,VALID,1.55799,
2003-11-04, 02:50:00,VALID,916.896,VALID,0,VALID,100,VALID,-0.0339617,VALID,19.2543,VALID,148,VALID,1.88619,
2003-11-04, 02:51:00,VALID,916.859,VALID,0,VALID,100,VALID,-0.0509425,VALID,19.2476,VALID,142,VALID,2.46503,
2003-11-04, 02:52:00,VALID,916.832,VALID,0,VALID,100,VALID,-0.0339617,VALID,19.2478,VALID,143,VALID,1.746,
2003-11-04, 02:53:00,VALID,916.787,VALID,0,VALID,100,VALID,-0.0509425,VALID,19.2515,VALID,143,VALID,1.6516,
2003-11-04, 02:54:00,VALID,916.749,VALID,0,VALID,100,VALID,-0.101885,VALID,19.2322,VALID,145,VALID,2.13348,
2003-11-04, 02:55:00,VALID,916.744,VALID,0,VALID,100,VALID,-0.0849042,VALID,19.2257,VALID,146,VALID,1.58321,
2003-11-04, 02:56:00,VALID,916.734,VALID,0,VALID,100,VALID,-0.101885,VALID,19.2163,VALID,144,VALID,1.13139,
2003-11-04, 02:57:00,VALID,916.722,VALID,0,VALID,100,VALID,-0.101885,VALID,19.2096,VALID,141,VALID,1.23326,
2003-11-04, 02:58:00,VALID,916.722,VALID,0,VALID,100,VALID,-0.0849042,VALID,19.2096,VALID,123,VALID,0.423295,
2003-11-04, 02:59:00,VALID,916.705,VALID,0,VALID,100,VALID,-0.0509425,VALID,19.1897,VALID,158,VALID,0.944741,
2003-11-04, 03:00:00,VALID,916.688,VALID,0,VALID,100,VALID,-0.0849042,VALID,19.1706,VALID,149,VALID,1.28634,
2003-11-04, 03:01:00,VALID,916.683,VALID,0,VALID,100,VALID,-0.101885,VALID,19.1544,VALID,134,VALID,1.63663,
2003-11-04, 03:02:00,VALID,916.653,VALID,0,VALID,100,VALID,-0.101885,VALID,19.145,VALID,148,VALID,2.19967,
2003-11-04, 03:03:00,VALID,916.643,VALID,0,VALID,100,VALID,-0.101885,VALID,19.1413,VALID,140,VALID,1.41722,
2003-11-04, 03:04:00,VALID,916.628,VALID,0,VALID,100,VALID,-0.101885,VALID,19.1452,VALID,135,VALID,2.20188,
2003-11-04, 03:05:00,VALID,916.617,VALID,0,VALID,100,VALID,0.0169808,VALID,19.1338,VALID,137,VALID,1.97535,
2003-11-04, 03:06:00,VALID,916.604,VALID,0,VALID,100,VALID,0.0169808,VALID,19.1175,VALID,139,VALID,2.3472,
2003-11-04, 03:07:00,VALID,916.594,VALID,0,VALID,100,VALID,-0.0169808,VALID,19.1244,VALID,141,VALID,1.90865,
2003-11-04, 03:08:00,VALID,916.579,VALID,0,VALID,100,VALID,-0.0169808,VALID,19.1115,VALID,137,VALID,2.53348,
2003-11-04, 03:09:00,VALID,916.541,VALID,0,VALID,100,VALID,0.0169808,VALID,19.1078,VALID,136,VALID,2.10826,
2003-11-04, 03:10:00,VALID,916.534,VALID,0,VALID,100,VALID,0,VALID,19.0946,VALID,127,VALID,3.17132,
2003-11-04, 03:11:00,VALID,916.512,VALID,0,VALID,100,VALID,0,VALID,19.0882,VALID,125,VALID,2.79688,
2003-11-04, 03:12:00,VALID,916.487,VALID,0,VALID,100,VALID,0,VALID,19.0951,VALID,133,VALID,2.33142,
2003-11-04, 03:13:00,VALID,916.469,VALID,0,VALID,100,VALID,0,VALID,19.1078,VALID,145,VALID,2.07404,
2003-11-04, 03:14:00,VALID,916.437,VALID,0,VALID,100,VALID,0,VALID,19.1212,VALID,134,VALID,2.48549,
2003-11-04, 03:15:00,VALID,916.425,VALID,0,VALID,100,VALID,0,VALID,19.1343,VALID,133,VALID,2.38743,
2003-11-04, 03:16:00,VALID,916.42,VALID,0,VALID,100,VALID,0,VALID,19.1207,VALID,128,VALID,2.26453,
2003-11-04, 03:17:00,VALID,916.408,VALID,0,VALID,100,VALID,0,VALID,19.1013,VALID,117,VALID,2.3843,
2003-11-04, 03:18:00,VALID,916.368,VALID,0,VALID,100,VALID,0,VALID,19.0983,VALID,129,VALID,1.97711,
2003-11-04, 03:19:00,VALID,916.343,VALID,0,VALID,100,VALID,-0.0169808,VALID,19.0916,VALID,115,VALID,1.93586,
2003-11-04, 03:20:00,VALID,916.336,VALID,0,VALID,100,VALID,0,VALID,19.0953,VALID,116,VALID,1.12843,
2003-11-04, 03:21:00,VALID,916.318,VALID,0,VALID,100,VALID,0,VALID,19.0953,VALID,113,VALID,1.60391,
2003-11-04, 03:22:00,VALID,916.299,VALID,0,VALID,100,VALID,0,VALID,19.0852,VALID,134,VALID,2.28262,
2003-11-04, 03:23:00,VALID,916.305,VALID,0,VALID,99.9682,VALID,0,VALID,19.0983,VALID,148,VALID,0.996189,
2003-11-04, 03:24:00,VALID,916.295,VALID,0,VALID,99.8833,VALID,0,VALID,19.1152,VALID,137,VALID,1.55938,
2003-11-04, 03:25:00,VALID,916.304,VALID,0,VALID,99.7777,VALID,-0.0169808,VALID,19.0916,VALID,119,VALID,1.12805,
2003-11-04, 03:26:00,VALID,916.307,VALID,0,VALID,99.7154,VALID,0,VALID,19.0921,VALID,145,VALID,1.63008,
2003-11-04, 03:27:00,VALID,916.334,VALID,0,VALID,99.6468,VALID,0.0169808,VALID,19.0919,VALID,160,VALID,1.70884,
2003-11-04, 03:28:00,VALID,916.351,VALID,0,VALID,99.5527,VALID,0,VALID,19.108,VALID,176,VALID,0.767933,
2003-11-04, 03:29:00,VALID,916.345,VALID,0,VALID,99.47,VALID,0,VALID,19.1048,VALID,171,VALID,1.08256,
2003-11-04, 03:30:00,VALID,916.32,VALID,0,VALID,99.4102,VALID,0,VALID,19.0884,VALID,162,VALID,1.87464,
2003-11-04, 03:31:00,VALID,916.318,VALID,0,VALID,99.3225,VALID,0,VALID,19.0986,VALID,216,VALID,0.938408,
2003-11-04, 03:32:00,VALID,916.289,VALID,0,VALID,99.311,VALID,0,VALID,19.0854,VALID,245,VALID,1.09355,
2003-11-04, 03:33:00,VALID,916.272,VALID,0,VALID,99.3581,VALID,-0.0169808,VALID,19.0663,VALID,232,VALID,1.26944,
2003-11-04, 03:34:00,VALID,916.26,VALID,0,VALID,99.4357,VALID,0,VALID,19.0337,VALID,221,VALID,0.83125,
2003-11-04, 03:35:00,VALID,916.27,VALID,0,VALID,99.5132,VALID,0,VALID,19.0208,VALID,230,VALID,0.700174,
2003-11-04, 03:36:00,VALID,916.274,VALID,0,VALID,99.559,VALID,0.0169808,VALID,19.0079,VALID,227,VALID,0.0609375,
2003-11-04, 03:37:00,VALID,916.294,VALID,0,VALID,99.615,VALID,0,VALID,19.0084,VALID,211,VALID,0.569949,
2003-11-04, 03:38:00,VALID,916.32,VALID,0,VALID,99.6785,VALID,0,VALID,18.9818,VALID,168,VALID,0.357922,
2003-11-04, 03:39:00,VALID,916.337,VALID,0,VALID,99.7167,VALID,0.0169808,VALID,18.9853,VALID,159,VALID,0.012429,
2003-11-04, 03:40:00,VALID,916.365,VALID,0,VALID,99.7599,VALID,0,VALID,18.9754,VALID,124,VALID,0.205611,
2003-11-04, 03:41:00,VALID,916.388,VALID,0,VALID,99.7497,VALID,0.0169808,VALID,18.9627,VALID,26,VALID,0.78468,
2003-11-04, 03:42:00,VALID,916.411,VALID,0,VALID,99.7027,VALID,0,VALID,18.9336,VALID,38,VALID,0.485742,
2003-11-04, 03:43:00,VALID,916.417,VALID,0,VALID,99.7625,VALID,0,VALID,18.9242,VALID,42,VALID,0.762718,
2003-11-04, 03:44:00,VALID,916.406,VALID,0,VALID,99.8731,VALID,0,VALID,18.9336,VALID,60,VALID,0.679142,